Location: Goettingen
(51.5300°N, 9.9433°E)
Time: 14:26:56
(UTC+01:00)

ISS - Pass Details

Date: 24 November 2023
Orbit: 416 x 417 km, 51.6° (Epoch: 02 December)

Event Time Altitude Azimuth Distance (km) Brightness Sun altitude
Rises 19:02:34 0° 271° (W) 2,362 1.5 -24.6°
Reaches altitude 10° 19:04:40 10° 272° (W) 1,499 0.1 -24.9°
Enters shadow 19:06:39 33° 274° (W) 729 -2.0 -25.2°
